Tracking 29892 objects as of 21-Nov-2024
HD Live streaming from Space Station
objects crossing your sky now

STARLINK-2135

Track STARLINK-2135 now!
10-day predictions
STARLINK-2135 is classified as:


NORAD ID: 47408
Int'l Code: 2021-005BM
Perigee: 553.0 km
Apogee: 555.4 km
Inclination: 53.1 °
Period: 95.6 minutes
Semi major axis: 6925 km
RCS: Unknown
Launch date: January 20, 2021
Source: United States (US)
Launch site: AIR FORCE EASTERN TEST RANGE (AFETR)
Your satellite tracking list
Your tracking list is empty




NASA's NSSDC Master Catalog

Two Line Element Set (TLE):
1 47408U 21005BM  24325.49549025  .00019378  00000-0  13144-2 0  9998
2 47408  53.0532   0.3586 0001717  84.9565 275.1620 15.06452313211993
Source of the keplerian elements: AFSPC